Tiempo cada hora Barreiras

Hoy, 22 Junio, Martes

Tiempo Temperatura Precipitaciones Viento Presión Humedad
00:00 +22°C° 0 mm 1 mps 722 mmHg 51%
01:00 +21°C° 0 mm 1 mps 721 mmHg 52%
02:00 +21°C° 0 mm 1 mps 721 mmHg 54%
03:00 +20°C° 0 mm 1 mps 721 mmHg 55%
04:00 +20°C° 0 mm 1 mps 721 mmHg 57%
05:00 +19°C° 0 mm 1 mps 721 mmHg 58%
06:00 +19°C° 0 mm 1 mps 722 mmHg 60%
07:00 +22°C° 0 mm 1 mps 723 mmHg 51%
08:00 +25°C° 0 mm 1 mps 723 mmHg 42%
09:00 +29°C° 0 mm 2 mps 724 mmHg 33%
10:00 +31°C° 0 mm 2 mps 723 mmHg 30%
11:00 +34°C° 0 mm 2 mps 723 mmHg 26%
12:00 +37°C° 0 mm 2 mps 723 mmHg 23%
13:00 +37°C° 0 mm 2 mps 722 mmHg 21%
14:00 +38°C° 0 mm 2 mps 721 mmHg 20%
15:00 +38°C° 0 mm 2 mps 720 mmHg 19%
16:00 +36°C° 0 mm 2 mps 720 mmHg 23%
17:00 +32°C° 0 mm 1 mps 720 mmHg 26%
18:00 +30°C° 0 mm 1 mps 720 mmHg 30%
19:00 +29°C° 0 mm 1 mps 720 mmHg 32%
20:00 +28°C° 0 mm 1 mps 721 mmHg 34%
21:00 +27°C° 0 mm 1 mps 722 mmHg 37%
22:00 +25°C° 0 mm 1 mps 721 mmHg 39%
23:00 +24°C° 0 mm 1 mps 721 mmHg 42%

Mañana, 23 Junio, Miércoles

Tiempo Temperatura Precipitaciones Viento Presión Humedad
00:00 +23°C° 0 mm 1 mps 721 mmHg 45%
01:00 +23°C° 0 mm 1 mps 721 mmHg 45%
02:00 +23°C° 0 mm 1 mps 721 mmHg 45%
03:00 +23°C° 0 mm 1 mps 721 mmHg 45%
04:00 +22°C° 0 mm 1 mps 721 mmHg 49%
05:00 +21°C° 0 mm 1 mps 721 mmHg 52%
06:00 +21°C° 0 mm 1 mps 721 mmHg 56%
07:00 +24°C° 0 mm 1 mps 722 mmHg 52%
08:00 +26°C° 0 mm 1 mps 723 mmHg 48%
09:00 +29°C° 0 mm 2 mps 724 mmHg 44%
10:00 +31°C° 0 mm 2 mps 723 mmHg 38%
11:00 +34°C° 0 mm 2 mps 723 mmHg 31%
12:00 +37°C° 0 mm 2 mps 722 mmHg 25%
13:00 +37°C° 0 mm 2 mps 721 mmHg 23%
14:00 +38°C° 0 mm 2 mps 721 mmHg 21%
15:00 +38°C° 0 mm 3 mps 720 mmHg 19%
16:00 +36°C° 0 mm 2 mps 720 mmHg 22%
17:00 +34°C° 0 mm 2 mps 720 mmHg 24%
18:00 +31°C° 0 mm 2 mps 720 mmHg 27%
19:00 +29°C° 0 mm 2 mps 720 mmHg 30%
20:00 +27°C° 0 mm 1 mps 721 mmHg 33%
21:00 +25°C° 0 mm 1 mps 721 mmHg 36%
22:00 +24°C° 0 mm 1 mps 722 mmHg 39%
23:00 +23°C° 0 mm 1 mps 722 mmHg 42%

Pasado mañana, 24 Junio, Jueves

Tiempo Temperatura Precipitaciones Viento Presión Humedad
00:00 +22°C° 0 mm 1 mps 722 mmHg 45%
01:00 +22°C° 0 mm 1 mps 722 mmHg 50%
02:00 +21°C° 0 mm 1 mps 721 mmHg 54%
03:00 +21°C° 0 mm 1 mps 721 mmHg 59%
04:00 +20°C° 0 mm 1 mps 721 mmHg 62%
05:00 +19°C° 0 mm 1 mps 722 mmHg 65%
06:00 +19°C° 0 mm 1 mps 722 mmHg 67%
07:00 +21°C° 0 mm 2 mps 723 mmHg 60%
08:00 +25°C° 0 mm 2 mps 723 mmHg 53%
09:00 +27°C° 0 mm 3 mps 724 mmHg 46%
10:00 +30°C° 0 mm 3 mps 723 mmHg 40%
11:00 +33°C° 0 mm 3 mps 723 mmHg 33%
12:00 +35°C° 0 mm 3 mps 722 mmHg 26%
13:00 +36°C° 0 mm 2 mps 721 mmHg 24%
14:00 +36°C° 0 mm 2 mps 720 mmHg 22%
15:00 +37°C° 0 mm 2 mps 720 mmHg 20%
16:00 +34°C° 0 mm 2 mps 720 mmHg 24%
17:00 +31°C° 0 mm 2 mps 720 mmHg 27%
18:00 +29°C° 0 mm 2 mps 719 mmHg 30%
19:00 +28°C° 0 mm 2 mps 720 mmHg 33%
20:00 +27°C° 0 mm 2 mps 721 mmHg 36%
21:00 +26°C° 0 mm 2 mps 721 mmHg 39%
22:00 +24°C° 0 mm 2 mps 721 mmHg 43%
23:00 +23°C° 0 mm 2 mps 721 mmHg 47%

25 Junio, Viernes

Tiempo Temperatura Precipitaciones Viento Presión Humedad
00:00 +21°C° 0 mm 2 mps 721 mmHg 51%
01:00 +21°C° 0 mm 1 mps 721 mmHg 54%
02:00 +21°C° 0 mm 1 mps 721 mmHg 56%
03:00 +20°C° 0 mm 1 mps 721 mmHg 59%
04:00 +19°C° 0 mm 1 mps 721 mmHg 62%
05:00 +19°C° 0 mm 1 mps 721 mmHg 65%
06:00 +18°C° 0 mm 1 mps 721 mmHg 68%
07:00 +21°C° 0 mm 1 mps 722 mmHg 60%
08:00 +24°C° 0 mm 2 mps 723 mmHg 52%
09:00 +27°C° 0 mm 2 mps 723 mmHg 44%
10:00 +30°C° 0 mm 2 mps 723 mmHg 37%
11:00 +32°C° 0 mm 2 mps 722 mmHg 31%
12:00 +36°C° 0 mm 2 mps 722 mmHg 25%
13:00 +36°C° 0 mm 2 mps 721 mmHg 23%
14:00 +36°C° 0 mm 2 mps 720 mmHg 21%
15:00 +37°C° 0 mm 2 mps 719 mmHg 19%
16:00 +34°C° 0 mm 2 mps 719 mmHg 23%
17:00 +31°C° 0 mm 2 mps 719 mmHg 26%
18:00 +28°C° 0 mm 2 mps 719 mmHg 29%
19:00 +27°C° 0 mm 2 mps 720 mmHg 33%
20:00 +25°C° 0 mm 2 mps 720 mmHg 37%
21:00 +23°C° 0 mm 1 mps 721 mmHg 41%
22:00 +23°C° 0 mm 1 mps 721 mmHg 43%
23:00 +22°C° 0 mm 1 mps 721 mmHg 45%

26 Junio, Sábado

Tiempo Temperatura Precipitaciones Viento Presión Humedad
00:00 +21°C° 0 mm 1 mps 721 mmHg 47%
01:00 +20°C° 0 mm 1 mps 720 mmHg 49%
02:00 +20°C° 0 mm 1 mps 720 mmHg 51%
03:00 +19°C° 0 mm 1 mps 720 mmHg 53%
04:00 +19°C° 0 mm 1 mps 720 mmHg 56%
05:00 +18°C° 0 mm 1 mps 721 mmHg 58%
06:00 +18°C° 0 mm 1 mps 721 mmHg 61%
07:00 +21°C° 0 mm 1 mps 722 mmHg 53%
08:00 +24°C° 0 mm 1 mps 722 mmHg 45%
09:00 +27°C° 0 mm 2 mps 723 mmHg 37%
10:00 +30°C° 0 mm 2 mps 723 mmHg 32%
11:00 +32°C° 0 mm 2 mps 722 mmHg 27%
12:00 +35°C° 0 mm 2 mps 722 mmHg 21%
13:00 +36°C° 0 mm 2 mps 721 mmHg 20%
14:00 +36°C° 0 mm 2 mps 720 mmHg 19%
15:00 +36°C° 0 mm 1 mps 719 mmHg 17%
16:00 +34°C° 0 mm 2 mps 719 mmHg 21%
17:00 +31°C° 0 mm 2 mps 719 mmHg 24%
18:00 +28°C° 0 mm 2 mps 719 mmHg 27%
19:00 +26°C° 0 mm 2 mps 720 mmHg 31%
20:00 +24°C° 0 mm 2 mps 720 mmHg 34%
21:00 +23°C° 0 mm 1 mps 721 mmHg 37%
22:00 +22°C° 0 mm 1 mps 721 mmHg 39%
23:00 +21°C° 0 mm 1 mps 721 mmHg 41%

27 Junio, Domingo

Tiempo Temperatura Precipitaciones Viento Presión Humedad
00:00 +19°C° 0 mm 2 mps 721 mmHg 43%
01:00 +19°C° 0 mm 1 mps 721 mmHg 46%
02:00 +19°C° 0 mm 1 mps 721 mmHg 50%
03:00 +18°C° 0 mm 1 mps 721 mmHg 54%
04:00 +16°C° 0 mm 1 mps 721 mmHg 57%
05:00 +16°C° 0 mm 1 mps 721 mmHg 61%
06:00 +16°C° 0 mm 1 mps 721 mmHg 64%
07:00 +20°C° 0 mm 1 mps 722 mmHg 57%
08:00 +23°C° 0 mm 1 mps 723 mmHg 50%
09:00 +26°C° 0 mm 2 mps 723 mmHg 43%
10:00 +28°C° 0 mm 2 mps 723 mmHg 37%
11:00 +31°C° 0 mm 2 mps 722 mmHg 31%
12:00 +34°C° 0 mm 2 mps 722 mmHg 25%
13:00 +35°C° 0 mm 2 mps 721 mmHg 23%
14:00 +36°C° 0 mm 2 mps 720 mmHg 21%
15:00 +36°C° 0 mm 2 mps 720 mmHg 19%
16:00 +34°C° 0 mm 2 mps 720 mmHg 22%
17:00 +30°C° 0 mm 2 mps 720 mmHg 26%
18:00 +28°C° 0 mm 2 mps 720 mmHg 30%
19:00 +26°C° 0 mm 2 mps 720 mmHg 33%
20:00 +24°C° 0 mm 1 mps 721 mmHg 37%
21:00 +22°C° 0 mm 1 mps 721 mmHg 41%
22:00 +22°C° 0 mm 1 mps 721 mmHg 42%
23:00 +21°C° 0 mm 1 mps 721 mmHg 43%
Mostrar más

Necesitamos Su Consentimiento

Meteoprog y nuestros Proveedores de Servicios pueden almacenar y acceder a sus datos personales como cookies, identificadores de dispositivo u otras tecnologías similares de su dispositivo y procesar dichos datos para personalizar contenido y anuncios, además de ofrecer funciones de redes sociales y analizar el tráfico.

  • Almacenar y/o acceder a información en su dispositivo

    Se puede almacenar o acceder a cookies, identificadores de dispositivo u otra información de su dispositivo para los fines anteriormente indicados.

  • Anuncios y contenido personalizados, medición de anuncios y contenido, percepciones del público, y desarrollo de productos

    Los anuncios y el contenido pueden personalizarse en base a su perfil. Se pueden añadir más datos para personalizar mejor los anuncios y contenidos. Se puede medir el rendimiento de los anuncios y contenidos. Se puede obtener la percepción sobre el público que ha visto los anuncios y contenidos. Dichos datos pueden usarse para desarrollar o mejorar la experiencia del usuario, sistemas y software.

Al hacer clic en ‘Estoy De Acuerdo’ usted permitirá el uso de las cookies, identificadores de dispositivo, balizas web u otras tecnologías similares indicadas. Su configuración puede cambiarse desde el navegador de su dispositivo.

Para ciertos fines, los intereses legítimos pueden ser considerados por encima del consentimiento. Puede leer más sobre ello en nuestra Política de Privacidad y Cookies.